Weather History for KBFM - January, 2014

Change the Weather History Date:

Saturday, January 25, 2014

  Actual Average Record
Temperature  
Mean Temperature 47 °F -  
Max Temperature 60 °F 58 °F 73 °F (2012)
Min Temperature 34 °F 40 °F 26 °F (2003)
Degree Days  
Heating Degree Days 18    
Moisture  
Dew Point 34 °F    
Average Humidity 73    
Maximum Humidity 89    
Minimum Humidity 38    
Precipitation  
Precipitation 0.00 in - - ()
Sea Level Pressure  
Sea Level Pressure 30.17 in    
Wind  
Wind Speed 3 mph (SW)    
Max Wind Speed 10 mph    
Max Gust Speed 17 mph    
Visibility 10 miles    
Events Rain    
Averages and records for this station are not official NWS values.
T = Trace of Precipitation, MM = Missing Value Source: NWS Daily Summary

Daily Weather History Graph

Daily Weather History Graph

Search for Another Location

Airport or City:

Trip Planner

Search our weather history database for the weather conditions in past years. The results will help you decide how hot, cold, wet, or windy it might be!

Date:

Astronomy

Jan. 25, 2014 Rise Set
Actual Time 6:47 AM CST 5:22 PM CST
Civil Twilight 6:21 AM CST 5:47 PM CST
Nautical Twilight 5:52 AM CST 6:17 PM CST
Astronomical Twilight 5:23 AM CST 6:45 PM CST
Moon 1:20 AM CST (1/25) 12:22 PM CST (1/25)
Length of Visible Light 11h 26m
Length of Day
10h 35m
Waning Crescent, 34% of the Moon is Illuminated
Jan 25
Waning Crescent
Jan 30
New
Feb 6
First Quarter
Feb 14
Full
Feb 22
Last Quarter

Hourly Weather History & Observations

Time (CST) Temp. Windchill Dew Point Humidity Pressure Visibility Wind Dir Wind Speed Gust Speed Precip Events Conditions
12:53 AM 34.0 °F - 26.1 °F 73% 30.33 in 10.0 mi Calm Calm - 0.00 in   Overcast
1:53 AM 34.0 °F 31.0 °F 26.1 °F 73% 30.30 in 10.0 mi SW 3.5 mph - 0.00 in Rain Light Rain
2:53 AM 34.0 °F - 28.0 °F 79% 30.28 in 10.0 mi Calm Calm - 0.00 in   Overcast
3:28 AM 35.1 °F - 28.9 °F 78% 30.26 in 10.0 mi Calm Calm - N/A   Overcast
3:39 AM 35.1 °F 32.2 °F 28.9 °F 78% 30.26 in 10.0 mi West 3.5 mph - N/A   Overcast
3:53 AM 35.1 °F - 30.0 °F 82% 30.26 in 10.0 mi Calm Calm - N/A   Overcast
4:30 AM 36.0 °F - 30.9 °F 82% 30.25 in 10.0 mi Calm Calm - N/A   Overcast
4:53 AM 36.0 °F - 30.9 °F 82% 30.25 in 10.0 mi Calm Calm - N/A   Overcast
5:53 AM 36.0 °F - 33.1 °F 89% 30.25 in 9.0 mi Calm Calm - N/A   Overcast
6:34 AM 37.0 °F - 33.1 °F 86% 30.24 in 10.0 mi Calm Calm - N/A   Overcast
6:53 AM 37.0 °F - 34.0 °F 89% 30.24 in 10.0 mi Calm Calm - N/A   Overcast
7:27 AM 37.9 °F - 35.1 °F 89% 30.23 in 10.0 mi Calm Calm - N/A   Overcast
7:48 AM 39.2 °F 37.0 °F 35.6 °F 87% 30.23 in 10.0 mi Variable 3.5 mph - N/A   Overcast
7:53 AM 39.0 °F 36.8 °F 35.1 °F 86% 30.23 in 10.0 mi WNW 3.5 mph - N/A   Overcast
8:53 AM 42.1 °F 38.4 °F 37.0 °F 82% 30.23 in 10.0 mi WSW 5.8 mph - N/A   Overcast
9:53 AM 44.1 °F 39.5 °F 36.0 °F 73% 30.22 in 10.0 mi WSW 8.1 mph - N/A   Overcast
10:27 AM 48.0 °F - 35.1 °F 61% 30.20 in 10.0 mi Variable 4.6 mph - N/A   Scattered Clouds
10:53 AM 51.1 °F - 35.1 °F 54% 30.19 in 10.0 mi Variable 4.6 mph - N/A   Clear
11:53 AM 55.0 °F - 35.1 °F 47% 30.15 in 10.0 mi SW 5.8 mph - N/A   Clear
12:53 PM 52.0 °F - 39.0 °F 61% 30.10 in 10.0 mi SSE 10.4 mph - 0.00 in Rain Light Rain
1:53 PM 54.0 °F - 41.0 °F 62% 30.05 in 10.0 mi SSE 6.9 mph - 0.00 in   Clear
2:53 PM 60.1 °F - 34.0 °F 38% 30.03 in 10.0 mi SW 9.2 mph 17.3 mph N/A   Clear
3:53 PM 60.1 °F - 34.0 °F 38% 30.03 in 10.0 mi Variable 6.9 mph - N/A   Clear
4:53 PM 57.0 °F - 34.0 °F 42% 30.03 in 10.0 mi West 3.5 mph - N/A   Clear
5:53 PM 51.1 °F - 37.0 °F 59% 30.05 in 10.0 mi SW 5.8 mph - N/A   Clear
6:53 PM 46.9 °F - 37.9 °F 71% 30.06 in 10.0 mi SSW 4.6 mph - N/A   Clear
7:53 PM 45.0 °F 43.5 °F 37.9 °F 76% 30.06 in 10.0 mi SW 3.5 mph - N/A   Clear
8:53 PM 41.0 °F - 37.0 °F 86% 30.09 in 10.0 mi Calm Calm - N/A   Clear
9:53 PM 43.0 °F 38.8 °F 37.9 °F 82% 30.10 in 10.0 mi WSW 6.9 mph - N/A   Clear
10:53 PM 43.0 °F 38.8 °F 37.9 °F 82% 30.09 in 10.0 mi WSW 6.9 mph - N/A   Clear
11:53 PM 42.1 °F 37.7 °F 37.0 °F 82% 30.08 in 10.0 mi West 6.9 mph - N/A   Clear